Das Wetter in  D-61279 Heinzenberg / Taunus





Wetter Minimum- & Maximum-Werte im Mai 2013

Standort: Heinzenberg / Taunus - Höhe 297 m         8 24' 1" Ost 50 21' 51" Nord
(   3-stündige Aktualisierung    letzte Aktualisierung um 19:04 am 31.05.2013  )


Messgrösse

Minimum

Maximum

Durchschnitt

Temperatur West /
Luftfeuchte West
Anklicken für Monats-Diagramm

0,0 C

06:16
25.05.2013

31 %

17:46
05.05.2013

24,6 C

17:20
19.05.2013

91 %

22:54
17.05.2013

Temp

11,5 C

Feuchte

76 %

Temperatur Ost /
Luftfeuchte Ost
Anklicken für Monats-Diagramm

0,2 C

06:11
25.05.2013

--

--
--

24,6 C

14:47
06.05.2013

--

--
--

11,4 C

--

Luftdruck Anklicken für Monats-Diagramm

995,2 hPa

12:27
16.05.2013

1024,7 hPa

07:16
05.05.2013

1011,3 hPa

Taupunkt

-2,4 C

06:01
25.05.2013

14,2 C

15:28
07.05.2013

7,1 C

Windchill
( gefühlte Temperatur )

-5,5 C

09:54
23.05.2013

24,1 C

16:55
19.05.2013

9,2 C

Windgeschwindigkeit /
Windrichtung
Anklicken für Monats-Diagramm

---

46,3 km/h / W-SW

18:57
11.05.2013

8,9 km/h
W-SW

Helligkeit /
Sonnenschein
Anklicken für Monats-Diagramm
Anklicken für Monats-Diagramm

Sonnenschein:

104:31 Stunden

Max: 11:15 Std am
28.05.2013

114,0 klux

14:12
27.05.2013

24 klux

Solarstrahlung Anklicken für Monats-Diagramm

---

780 W/m

14:12
27.05.2013

175 W/m

Regenmenge
    Mai 2013
Anklicken für Monats-Diagramm

Insgesamt 135,4 l/m

in 106:50 Stunden
an 21 Tagen

22,3 l/m

16:16
26.05.2013

Gesamtmenge

135,4 l/m

Regen-Tage
    Mai 2013
Anklicken für Monats-Diagramm

>   0 mm/Tag

>   2 mm/Tag

>   5 mm/Tag

> 10 mm/Tag

> 20 mm/Tag

21 Tage     
12 Tage     
9 Tage     
6 Tage     
  1 Tag     

Eisige Tage Mai 2013 / 2012

Tmin ≤ -10C     

0 Tage

/

0 Tage

Eistage Mai 2013 / 2012

Tmax <     0C     

0 Tage

/

0 Tage

Frosttage Mai 2013 / 2012

Tmin ≤     0C     

0 Tage

/

  1 Tag

Kalte Tage Mai 2013 / 2012

Tmax <   10C     

2 Tage

/

0 Tage

Warme Tage Mai 2013 / 2012

Tmax ≥   20C     

8 Tage

/

20 Tage

Sommertage Mai 2013 / 2012

Tmax ≥   25C     

0 Tage

/

11 Tage

Heisse Tage Mai 2013 / 2012

Tmax ≥   30C     

0 Tage

/

0 Tage


Monatsdiagramm Mai 2013

Die Kurven zeigen den Durchschnittswert des jeweiligen Tages an


Wetter-Monatsübersicht Mai 2013
Datum
  Temperatur
   Luftdruck
   Wind
  Regen
   Luftfeuchte
   Helligkeit

Sonnen-
schein


Temp.

Min.
Temp.

Max.
Temp.


Luftdruck

Min.
Luftdruck

Max.
Luftdruck

-Geschw.
Haupt-Richtg.

Max.
Wind

Menge /
Dauer


Feuchte

Min.
Feuchte

Max.
Feuchte


Helligkeit

Max.
Helligkeit

1.
Mai
11,1 C7,0 C
05:07
18,0 C
17:27
1021,5 hPa1018,0 hPa
17:27
1024,5 hPa
01:12
4,0 km/h
NO
20,0 km/h
12:32  
0,2 l/m
25 Minuten
74 %57 %
17:47
85 %
03:07
24,4 klux88,5 klux
14:17
2:05 Std 
2.
Mai
13,2 C8,9 C
06:58
18,8 C
17:08
1019,1 hPa1017,9 hPa
17:08
1020,9 hPa
01:12
4,4 km/h
O
31,8 km/h
19:48  
---
69 %56 %
17:08
83 %
07:43
33,0 klux88,0 klux
11:33
6:05 Std 
3.
Mai
13,4 C9,2 C
03:14
18,4 C
16:39
1016,3 hPa1014,8 hPa
16:39
1019,0 hPa
01:24
3,0 km/h
NO
15,0 km/h
17:19  
---
70 %56 %
16:39
83 %
06:54
22,2 klux85,8 klux
11:34
25 Min 
4.
Mai
13,7 C9,7 C
01:15
20,6 C
17:30
1017,3 hPa1015,8 hPa
03:05
1022,0 hPa
23:56
6,0 km/h
W-SW
24,6 km/h
15:20  
---
70 %39 %
17:35
83 %
08:25
30,6 klux80,8 klux
14:45
5:30 Std 
5.
Mai
14,1 C5,8 C
07:01
23,4 C
18:06
1022,4 hPa1020,4 hPa
18:06
1024,7 hPa
07:16
2,9 km/h
SO
19,4 km/h
17:46  
---
63 %31 %
17:46
85 %
08:46
38,7 klux84,7 klux
13:46
10:45 Std 
6.
Mai
15,6 C6,2 C
06:42
24,1 C
14:47
1018,8 hPa1015,2 hPa
18:07
1022,5 hPa
06:42
4,7 km/h
SO
26,0 km/h
12:12  
---
61 %42 %
14:17
82 %
07:47
40,1 klux91,6 klux
14:42
9:25 Std 
7.
Mai
13,4 C9,2 C
05:13
18,4 C
18:48
1015,1 hPa1012,8 hPa
18:38
1016,8 hPa
03:43
2,4 km/h
SO
13,6 km/h
16:23  
2,0 l/m
2:25 Stunden
78 %62 %
00:03
88 %
14:18
14,8 klux99,9 klux
15:28
1:25 Std 
8.
Mai
15,0 C8,2 C
04:19
21,8 C
16:19
1012,8 hPa1010,5 hPa
17:49
1015,0 hPa
02:54
7,4 km/h
W-SW
26,5 km/h
11:49  
---
70 %52 %
15:34
89 %
08:04
32 klux88 klux
14:09
4:25 Std 
9.
Mai
15,2 C12,8 C
06:05
18,5 C
17:45
1013,1 hPa1011,7 hPa
17:55
1014,3 hPa
13:05
9,0 km/h
W-SW
33,1 km/h
10:30  
14,0 l/m
2:05 Stunden
77 %67 %
00:00
87 %
14:05
25,1 klux84,4 klux
10:35
3:40 Std 
10.
Mai
12,8 C8,9 C
06:46
16,5 C
15:21
1015,1 hPa1012,3 hPa
01:01
1018,7 hPa
23:52
15,8 km/h
W-SW
38,0 km/h
15:46  
---
67 %53 %
15:01
82 %
00:01
31,9 klux113,0 klux
14:31
5:00 Std 
11.
Mai
11,5 C9,5 C
21:52
15,6 C
16:07
1015,7 hPa1013,1 hPa
16:07
1018,8 hPa
00:52
8,3 km/h
W-SW
46,3 km/h
18:57  
0,9 l/m
1:50 Stunden
74 %60 %
18:37
86 %
13:42
22 klux96 klux
13:57
3:05 Std 
12.
Mai
8,7 C6,0 C
08:18
12,2 C
17:13
1015,6 hPa1012,7 hPa
03:43
1019,4 hPa
21:58
13,7 km/h
W-SW
40,9 km/h
21:28  
7,9 l/m
7:15 Stunden
79 %66 %
15:28
88 %
12:03
27,4 klux102,0 klux
13:38
4:50 Std 
13.
Mai
9,8 C6,7 C
02:19
14,4 C
15:49
1015,7 hPa1013,4 hPa
19:09
1019,4 hPa
02:19
13,7 km/h
W-SW
41,1 km/h
16:59  
2,1 l/m
6:20 Stunden
83 %70 %
15:49
90 %
09:49
16 klux107 klux
14:59
36 Min 
14.
Mai
11,6 C8,4 C
23:56
16,0 C
17:25
1010,2 hPa1005,5 hPa
22:56
1013,8 hPa
01:15
7,7 km/h
W-SW
27,4 km/h
04:55  
1,4 l/m
2:00 Stunden
76 %59 %
18:00
85 %
11:35
18 klux80 klux
15:15
40 Min 
15.
Mai
12,8 C6,2 C
02:31
20,3 C
15:51
1002,4 hPa1000,8 hPa
10:16
1005,7 hPa
00:36
10,1 km/h
W-SW
43,5 km/h
13:36  
0,6 l/m
1:00 Stunden
74 %53 %
16:06
90 %
09:51
28,4 klux104,0 klux
15:31
3:20 Std 
16.
Mai
13,7 C9,0 C
05:57
17,9 C
11:37
998,2 hPa995,2 hPa
12:27
1003,2 hPa
01:47
3,4 km/h
NW
17,0 km/h
13:57  
1,1 l/m
2:16 Stunden
80 %68 %
10:42
87 %
08:37
18 klux46 klux
10:17
40 Min 
17.
Mai
10,7 C8,9 C
23:04
12,8 C
00:03
1000,7 hPa996,9 hPa
02:03
1005,6 hPa
23:34
9,3 km/h
W
21,1 km/h
11:43  
---
25 Minuten
89 %86 %
00:03
91 %
22:54
6,0 klux17,0 klux
14:08
--- 
18.
Mai
12,5 C8,8 C
01:29
20,6 C
18:24
1007,9 hPa1005,6 hPa
00:04
1009,8 hPa
23:55
8,6 km/h
W
22,9 km/h
09:39  
---
75 %49 %
18:24
90 %
00:04
29,9 klux109,0 klux
13:49
5:30 Std 
19.
Mai
13,2 C5,4 C
06:05
24,6 C
17:20
1007,0 hPa1003,8 hPa
17:20
1010,1 hPa
03:45
8,3 km/h
W-SW
36,2 km/h
20:30  
18,7 l/m
5:41 Stunden
72 %41 %
14:40
88 %
08:00
39 klux93 klux
11:45
7:25 Std 
20.
Mai
10,2 C8,0 C
05:16
14,0 C
16:31
1009,4 hPa1007,6 hPa
00:01
1011,8 hPa
23:42
17,0 km/h
W-SW
34,6 km/h
13:06  
6,2 l/m
7:00 Stunden
82 %67 %
17:01
89 %
07:11
20,1 klux96,2 klux
16:16
1:10 Std 
21.
Mai
11,2 C8,7 C
01:07
17,4 C
17:47
1010,4 hPa1008,4 hPa
20:42
1011,9 hPa
01:07
8,0 km/h
W-SW
19,8 km/h
14:42  
2,9 l/m
2:35 Stunden
79 %58 %
17:47
87 %
08:02
20,8 klux74,5 klux
17:12
1:25 Std 
22.
Mai
8,3 C6,9 C
23:29
10,4 C
00:03
1011,1 hPa1007,7 hPa
04:13
1014,1 hPa
23:29
18,3 km/h
W-NW
40,1 km/h
11:38  
7,1 l/m
7:50 Stunden
85 %74 %
14:23
90 %
02:48
12,8 klux106,0 klux
14:13
10 Min 
23.
Mai
6,2 C3,9 C
23:50
9,7 C
12:19
1008,9 hPa1005,5 hPa
12:19
1014,2 hPa
00:29
9,2 km/h
W
33,0 km/h
09:54  
10,6 l/m
7:45 Stunden
86 %80 %
12:19
90 %
11:14
14 klux92 klux
11:34
55 Min 
24.
Mai
6,8 C2,5 C
06:00
13,8 C
17:45
1011,8 hPa1010,4 hPa
00:00
1014,5 hPa
23:56
2,9 km/h
W
14,9 km/h
11:00  
---
74 %45 %
17:25
89 %
06:25
26,5 klux89,3 klux
16:15
3:40 Std 
25.
Mai
7,0 C0,0 C
06:16
13,8 C
13:16
1013,6 hPa1011,4 hPa
18:26
1015,1 hPa
06:16
7,5 km/h
NW
31,2 km/h
20:21  
1,7 l/m
1:55 Stunden
72 %53 %
13:11
87 %
08:31
22,9 klux99,9 klux
13:11
3:00 Std 
26.
Mai
6,8 C5,3 C
04:56
8,3 C
17:41
1011,0 hPa1009,8 hPa
17:41
1013,3 hPa
03:41
19,8 km/h
W
36,8 km/h
18:31  
22,3 l/m
22:07 Stunden
90 %85 %
00:01
91 %
10:36
5 klux16 klux
15:01
--- 
27.
Mai
11,2 C6,3 C
04:12
18,6 C
17:22
1009,6 hPa1008,6 hPa
17:22
1010,9 hPa
09:27
17,3 km/h
W-NW
40,4 km/h
12:42  
4,1 l/m
3:55 Stunden
72 %47 %
16:12
90 %
00:02
36,2 klux114,0 klux
14:12
5:15 Std 
28.
Mai
14,4 C5,4 C
06:28
23,2 C
16:48
1004,2 hPa998,9 hPa
19:13
1010,0 hPa
01:38
5,1 km/h
SO
25,9 km/h
10:58  
---
63 %39 %
16:58
85 %
06:58
43 klux103 klux
14:03
11:15 Std 
29.
Mai
9,3 C7,0 C
23:05
13,4 C
00:04
1002,3 hPa999,2 hPa
06:19
1005,8 hPa
23:05
13,7 km/h
W
37,1 km/h
10:59  
15,0 l/m
11:55 Stunden
86 %68 %
00:04
89 %
06:44
12 klux37 klux
16:34
--- 
30.
Mai
10,7 C4,6 C
05:30
16,9 C
17:10
1007,3 hPa1005,8 hPa
01:25
1008,3 hPa
22:46
4,3 km/h
NW
19,1 km/h
14:15  
0,2 l/m
56 Minuten
75 %56 %
17:10
90 %
08:15
25,6 klux114,0 klux
12:55
2:45 Std 
31.
Mai
12,4 C9,3 C
02:06
15,2 C
19:36
1005,3 hPa1003,2 hPa
07:56
1008,0 hPa
23:56
9,7 km/h
NW
27,2 km/h
11:21  
16,4 l/m
9:10 Stunden
85 %73 %
00:01
89 %
04:26
7 klux73 klux
15:21
5 Min 



Mai
2013

Temperatur

  

Luftdruck

  

Wind

  

Regen

  

Luftfeuchte

  

Helligkeit

Sonnen-
schein

Min

Max

Min

Max

Max

Max

Min

Max

Max

Max

11,5 C

0,0 C

06:16 Uhr
25.05.2013

24,6 C

17:20 Uhr
19.05.2013

1011,3 hPa

995,2 hPa

12:27 Uhr
16.05.2013

1024,7 hPa

07:16 Uhr
05.05.2013

8,9 km/h

W-SW

46,3 km/h

18:57 Uhr
11.05.2013

22,3 l/m

22:07 Stunden
26.05.2013

76 %

31 %

17:46 Uhr
05.05.2013

91 %

22:54 Uhr
17.05.2013

24,0 klux

114,0 klux

14:12 Uhr
27.05.2013

11:15 Std

am
28.05.2013

Gesamt

Gesamt

135,4 l/m

21 Tage
106:50 h

104:31 Std


Wetter-Diagramme Mai 2013     Heinzenberg / Taunus   
TemperaturLuftfeuchte
SolarstrahlungLuftdruck
HelligkeitSonnenschein
RegenmengeRegendauer
Wind-GeschwindigkeitWind-Richtung